OPS 4682 DEB, 38452

Orbit data source: Space-Track

OPS 4682 DEB, 38452 is space debris in LEO originally from a launch on Sat, 03 Apr 1965 UTC launched from the Air Force Western Test Range (AFWTR). Debris objects in space refer to the collection of defunct objects orbiting the Earth. Examples of debris include non-operational satellites, rocket bodies, and fragments generated from explosions, collisions, or faulty payload assembly.

Loading next visibility...
Identifier
38452, 1965-027FH
Orbit
LEO
Country
Flag of USUS
Related business
Manufacturer
Unknown
Mission
Spacecraft
Bus & Motor
Unknown
Mass
Unknown
Launch date (UTC)
1965-04-03 (61 years ago)
Launch vehicle
Unknown
Launch site
Air Force Western Test Range (AFWTR)
Object type
Payload
Rocket body
Debris
Shape & HBR
Unknown shape, 0.1 m
Radar Cross Section
Medium (>0.1 m² and <1 m²)

Expand to show TLE details & history
Last TLE update: 7 hours ago

TLE from 7 hours ago
0 OPS 4682 DEB
1 38452U 65027FH  26175.23887415 -.00000005  00000-0 -45767-4 0  9991
2 38452  90.2464   3.7325 0016886 141.1783 219.0552 12.93999000624012
Epoch: 2026-06-24T05:43Z
TLE epoch observation values (Epoch: 2026-06-24T05:43:58.726Z)
Latitude
-0.00004°
Longitude
5.33886°
Altitude
1,298.624 km
Speed
7.202 km/s
True Right ascension
00h 14m 55s
True Declination
0° 00' 00"
Sunlit
Object was in daylight at epoch
Visualization orbit readout
Latitude
Unknown
Longitude
Unknown
Altitude
Unknown
Speed
Unknown
Apparent Right ascension
Unknown
Apparent Declination
Unknown
Sunlit
N/A
Visualization observer readout
Local Sidereal Time
00:18:59
Azimuth
Unknown
Elevation
Unknown
Doppler factor
Unknown
Orbital elements
Apogee altitude
1,295.762 km
Perigee altitude
1,269.889 km
Semi-major axis
7,660.963 km
Eccentricity
0.00169
Inclination
90.2464°
RAAN
3.7325°
Arg. of periapsis
141.1783°
True anomaly
218.93348°
Mean anomaly
219.0552°
Eccentric anomaly
218.99432°
Mean motion
3.23682 °/min
Orbital period
111.22 mins
BSTAR
-0.000045767
Loading maneuver chart data...
Computing Atmospheric mass density...
Loading historical data...
Loading historical data...
Loading historical data...
Loading historical data...
Loading historical data...
Loading historical data...
Loading historical data...

Documentation

Showing up to 5 results
|